#timestamp,LO_Frequency,Hit,StdDev 
1614808815.8,286046994.9,Y
1614808835.6,286047000.6,P
1614808855.4,286047000.8,N
1614808875.3,286047000.1,N
1614808895.1,286047001.3,N
1614808915.9,286047000.0,N
1614808935.7,286047000.8,N
1614808955.5,286047000.4,N
1614808975.4,286046999.5,N
1614808995.2,286046999.6,N
1614809015.0,286047000.8,N
1614809015.9,286047000.8,N
1614809035.8,286046997.4,N
1614809055.6,286046996.8,N
1614809075.5,286046997.2,N
1614809095.3,286046998.0,N
1614809115.1,286046997.7,N
1614809135.9,286046997.5,N
1614809155.7,286046996.8,N
1614809175.5,286047000.4,N
1614809195.4,286047004.6,N
1614809215.2,286047006.1,N
1614809235.1,286047008.0,Y
1614809236.0,286047008.0,P
1614809255.8,286047008.3,N
1614809275.7,286047006.6,N
1614809295.5,286047005.3,N
1614809315.4,286047007.6,N
1614809335.2,286047007.1,N
1614809355.0,286047002.9,N
1614809355.9,286047002.9,N
1614809375.8,286047005.3,N
1614809395.6,286047001.3,N
1614809415.5,286046998.2,N
1614809435.3,286046998.6,N
1614809455.1,286046999.5,N
1614809475.9,286047000.5,N
1614809495.7,286047001.6,N
1614809515.6,286047001.9,N
1614809535.4,286047000.1,N
1614809555.2,286047002.4,N
1614809575.1,286046998.1,N
1614809576.0,286046998.1,N
1614809595.8,286047002.1,N
1614809615.7,286047003.1,N
1614809635.5,286047005.4,N
1614809655.3,286047005.7,N
1614809675.2,286047004.7,N
1614809695.0,286047009.0,N
1614809695.9,286047009.0,N
1614809715.8,286047008.9,N
1614809735.6,286047008.0,N
1614809755.5,286047009.5,N
1614809775.3,286047009.6,N
1614809795.1,286047008.1,N
1614809815.9,286047006.5,N
1614809835.7,286047005.1,N
1614809855.5,286047003.0,N
1614809875.4,286047006.0,N
1614809895.2,286047002.7,N
1614809915.1,286046998.8,N
1614809916.0,286046998.8,N
1614809935.8,286046999.5,N
1614809955.6,286046995.2,N
1614809975.5,286046994.5,N
1614809995.3,286046988.2,N
1614810015.2,286046986.1,N
1614810035.9,286046986.9,N
1614810055.7,286046987.4,N
1614810075.6,286046987.5,N
1614810095.4,286046980.6,N
1614810115.2,286046983.6,N
1614810135.1,286046979.1,N
1614810136.0,286046979.1,N
1614810155.8,286046980.1,N
1614810175.7,286046982.6,N
1614810195.5,286046981.1,N
1614810215.3,286046980.3,N
1614810235.2,286046981.8,N
1614810255.9,286046978.9,N
1614810275.7,286046978.4,N
1614810295.6,286046978.2,N
1614810315.4,286046973.5,N
1614810335.3,286046974.9,N
1614810355.1,286046975.4,N
1614810356.0,286046975.4,N
1614810375.8,286046973.0,N
1614810395.7,286046975.5,N
1614810415.5,286046977.9,N
1614810435.3,286046976.1,N
1614810455.2,286046978.0,N
1614810475.0,286046977.4,Y
1614810475.9,286046977.4,P
1614810495.8,286046997.2,N
1614810515.6,286047001.1,N
1614810535.4,286047000.4,N
1614810555.3,286047001.6,N
1614810575.1,286047001.0,N
1614810595.8,286046995.0,N
1614810615.7,286046996.9,N
1614810635.5,286046995.9,N
1614810655.4,286046990.9,N
1614810675.2,286046989.7,N
1614810695.1,286046991.2,N
1614810696.0,286046991.2,N
1614810715.8,286046987.6,N
1614810735.6,286046977.5,Y
1614810755.5,286046979.6,P
1614810775.3,286046967.7,P
1614810795.1,286046962.2,P
1614810815.9,286046950.9,Y
1614810835.7,286046974.0,P
1614810855.6,286046966.8,P
1614810875.4,286046967.6,P
1614810895.2,286046966.3,Y
1614810915.1,286046994.6,P
1614810916.0,286046994.6,N
1614810935.8,286046994.4,N
1614810955.7,286046993.4,N
1614810975.5,286046996.6,N
1614810995.3,286047005.8,N
1614811015.2,286047006.4,N
1614811035.0,286047011.6,N
1614811035.9,286047011.6,N
1614811055.7,286047013.6,N
1614811075.6,286047015.2,N
1614811095.4,286047013.8,N
1614811115.3,286047016.7,N
1614811135.1,286047018.1,N
1614811136.0,286047018.1,N
1614811155.8,286047020.3,N
1614811175.7,286047020.3,N
1614811195.5,286047018.0,N
1614811215.4,286047020.8,N
1614811235.2,286047025.5,N
1614811255.0,286047027.7,N
1614811255.9,286047027.7,N
1614811275.8,286047031.0,N
1614811295.6,286047032.4,N
1614811315.4,286047033.4,N
1614811335.3,286047032.1,N
1614811355.1,286047030.4,N
1614811375.9,286047025.9,N
1614811395.7,286047025.6,N
1614811415.5,286047027.8,N
1614811435.4,286047029.6,N
1614811455.2,286047026.0,N
1614811475.0,286047016.6,N
1614811475.9,286047016.6,N
1614811495.8,286047010.0,N
1614811515.6,286047007.7,N
1614811535.5,286047010.4,N
1614811555.3,286047010.6,N
1614811575.1,286047014.0,N
1614811595.9,286047018.2,N
1614811615.7,286047025.3,Y
1614811635.5,286047009.0,P
1614811655.4,286047007.2,N
1614811675.2,286047008.7,N
1614811695.1,286047011.2,N
1614811696.0,286047011.2,N
1614811715.8,286047010.8,N
1614811735.6,286047008.2,N
1614811755.5,286047008.0,N
1614811775.3,286047011.4,N
1614811795.1,286047009.7,N
1614811815.9,286047007.7,N
1614811835.7,286047009.3,N
1614811855.6,286047015.1,Y
1614811875.4,286047008.0,P
1614811895.2,286047015.4,P
1614811915.1,286047015.8,P
1614811916.0,286047015.8,Y
1614811935.8,286047008.6,P
1614811955.6,286047009.7,P
1614811975.5,286047016.9,P
1614811995.3,286047019.6,Y
1614812015.2,286047014.0,P
1614812035.9,286047015.7,P
1614812055.7,286047021.0,P
1614812075.6,286047027.8,Y
1614812095.4,286047018.8,P
1614812115.3,286047018.0,P
1614812135.1,286047015.8,P
1614812136.0,286047015.8,Y
1614812155.8,286047000.1,P
1614812175.7,286046999.5,N
1614812195.5,286046999.1,N
1614812215.3,286046995.0,N
1614812235.2,286046999.0,N
1614812255.0,286046999.9,N
1614812255.9,286046999.9,N
1614812275.8,286046999.6,N
1614812295.6,286046995.6,N
1614812315.4,286046995.5,N
1614812335.3,286046996.2,N
1614812355.1,286046991.9,N
1614812375.9,286046992.4,N
1614812395.7,286046994.8,N
